www.pogodaiklimat.ru
ПОГОДА в Колсхилле
Время
(UTC), дата
10 30.11
11 30.11
12 30.11
13 30.11
14 30.11
15 30.11
16 30.11
17 30.11
18 30.11
19 30.11
20 30.11
21 30.11
22 30.11
23 30.11
00 1.12
01 1.12
02 1.12
03 1.12
04 1.12
05 1.12
06 1.12
07 1.12
08 1.12
09 1.12
10 1.12
11 1.12
12 1.12
13 1.12
14 1.12
15 1.12
16 1.12
17 1.12
18 1.12
19 1.12
20 1.12
21 1.12
22 1.12
23 1.12
00 2.12
01 2.12
02 2.12
03 2.12
04 2.12
05 2.12
06 2.12
07 2.12
08 2.12
09 2.12
10 2.12
11 2.12
12 2.12
13 2.12
14 2.12
15 2.12
16 2.12
17 2.12
18 2.12
19 2.12
20 2.12
21 2.12
22 2.12
23 2.12
00 3.12
01 3.12
02 3.12
03 3.12
04 3.12
05 3.12
06 3.12
07 3.12
08 3.12
09 3.12
10 3.12
11 3.12
12 3.12
13 3.12
14 3.12
15 3.12
16 3.12
17 3.12
18 3.12
19 3.12
20 3.12
21 3.12
22 3.12
23 3.12
00 4.12
01 4.12
02 4.12
03 4.12
04 4.12
05 4.12
06 4.12
07 4.12
08 4.12
09 4.12
10 4.12
11 4.12
12 4.12
13 4.12
14 4.12
15 4.12
16 4.12
17 4.12
18 4.12
19 4.12
20 4.12
21 4.12
22 4.12
23 4.12
00 5.12
01 5.12
02 5.12
03 5.12
04 5.12
05 5.12
06 5.12
07 5.12
08 5.12
09 5.12
10 5.12
11 5.12
12 5.12
13 5.12
14 5.12
15 5.12
16 5.12
17 5.12
18 5.12
19 5.12
20 5.12
21 5.12
22 5.12
23 5.12
00 6.12
01 6.12
02 6.12
03 6.12
04 6.12
05 6.12
06 6.12
07 6.12
08 6.12
09 6.12
10 6.12
11 6.12
12 6.12
13 6.12
14 6.12
15 6.12
16 6.12
17 6.12
18 6.12
19 6.12
20 6.12
21 6.12
22 6.12
23 6.12
00 7.12
01 7.12
02 7.12
03 7.12
04 7.12
05 7.12
06 7.12
07 7.12
08 7.12
09 7.12
10 7.12
Ветер
(напр.,м/с)
Видим. Явления Облачность Т
(С)
Тd
(С)
f
(%)
Тe
(С)
Тes
(С)
Комфортность P
(гПа)
Po
(гПа)
Тmin
(С)
Tmax
(С)
R
(мм)
R24
(мм)
S
(см)
В 2 3800 м в посл. час осадки н/о -0.2 -0.2 100 -4 -4 прохладно 1022.8 1010.6
В 2 6000 м дымка н/о +0.8 +0.8 100 -3 -3 прохладно 1022.9 1010.7
СВ 1 10 км дымка н/о +2.1 +1.7 97 0 0 по сезону 1022.6 1010.5 0.0
СВ 2 10 км н/о +2.9 +1.7 92 0 0 по сезону 1022.1 1010.1
В 2 26 км н/о +4.3 +2.4 87 +1 +1 по сезону 1021.9 1009.9
СВ 3 21 км н/о +3.8 +2.1 89 0 0 по сезону 1021.7 1009.7
СВ 3 24 км н/о +2.9 +1.5 90 -1 -1 по сезону 1021.8 1009.7
СВ 2 12 км н/о +2.1 +1.1 93 -1 -1 по сезону 1022.0 1009.9
СВ 3 13 км н/о +2.0 +1.1 94 -2 -2 по сезону 1022.1 1010.0 +4.5 0.0
СВ 3 14 км н/о +2.4 +1.7 95 -2 -2 по сезону 1022.3 1010.2
СВ 3 16 км н/о +2.6 +1.8 94 -2 -2 по сезону 1022.5 1010.4
СВ 2 13 км н/о +2.5 +1.7 94 -0 -0 по сезону 1022.9 1010.8
С 2 6000 м дымка н/о +0.7 +0.4 98 -3 -3 прохладно 1022.9 1010.7
СЗ 2 5000 м дымка н/о +1.1 +0.9 99 -3 -3 прохладно 1023.3 1011.2
С 3 6000 м дымка н/о +1.3 +1.2 99 -3 -3 прохладно 1023.5 1011.3
С 3 3600 м слаб. ливневой дождь н/о +1.6 +1.4 99 -3 -3 прохладно 1023.2 1011.1
С 3 5000 м в посл. час дождь н/о +1.8 +1.6 99 -3 -3 прохладно 1022.9 1010.8
С 3 5000 м дымка н/о +1.6 +1.3 98 -3 -3 прохладно 1022.9 1010.7
С 4 10 км в посл. час осадки н/о +1.5 +1.3 99 -4 -4 прохладно 1022.8 1010.7
С 4 8000 м дымка н/о +1.8 +1.3 96 -4 -4 прохладно 1023.1 1011.0
С 2 10 км дымка н/о +1.4 +0.7 95 -2 -2 по сезону 1023.4 1011.2 +0.5 0.2 0.2
С 4 7000 м дымка н/о +0.5 0.0 96 -5 -5 холодно 1023.8 1011.6
С 3 5000 м дымка н/о -0.1 -0.4 98 -5 -5 холодно 1024.9 1012.7
С 1 5000 м дымка н/о -0.2 -0.4 99 -3 -3 прохладно 1025.4 1013.2
С 3 8000 м дымка н/о +0.9 +0.6 98 -3 -3 прохладно 1026.4 1014.2
С 3 10 км н/о +2.8 +2.0 94 -2 -2 по сезону 1026.3 1014.1
С 4 21 км н/о +4.5 +2.7 88 0 0 по сезону 1026.0 1014.0
С 4 30 км н/о +5.0 +3.0 87 +1 +1 по сезону 1025.9 1013.9
С 4 40 км н/о +4.9 +2.6 85 +1 +1 по сезону 1026.2 1014.2
С 4 35 км н/о +4.9 +2.6 85 +1 +1 по сезону 1026.8 1014.7
С 3 45 км н/о +3.3 +1.4 87 -0 -0 по сезону 1027.3 1015.2
С 3 30 км н/о +1.9 +0.3 89 -2 -2 по сезону 1028.0 1015.9
СЗ 2 15 км н/о +1.6 +0.9 95 -1 -1 по сезону 1028.4 1016.2 +5.5
СЗ 2 11 км н/о +0.4 -0.5 94 -3 -3 прохладно 1028.9 1016.6
З 1 10 км н/о 0.0 -0.9 94 -2 -2 по сезону 1029.3 1017.0
З 1 13 км н/о -0.2 -0.8 96 -2 -2 по сезону 1029.7 1017.4
З 1 8000 м дымка н/о -1.6 -2.2 96 -4 -4 прохладно 1030.1 1017.7
СЗ 1 7000 м дымка н/о -2.0 -2.2 99 -3 -3 прохладно 1030.3 1017.9
З 1 5000 м дымка н/о -2.3 -2.7 97 -3 -3 прохладно 1030.8 1018.4
СЗ 1 6000 м дымка н/о -1.8 -2.0 99 -4 -4 прохладно 1030.9 1018.6
З 2 5000 м дымка н/о -2.6 -2.9 98 -6 -6 холодно 1031.0 1018.5
З 1 5000 м дымка н/о -2.6 -3.0 97 -4 -4 прохладно 1031.1 1018.7
ЮЗ 1 5000 м дымка н/о -2.5 -2.7 99 -5 -5 холодно 1031.1 1018.7
З 1 8000 м дымка н/о -2.3 -2.6 98 -5 -5 холодно 1031.2 1018.8
ЮЗ 1 6000 м дымка н/о -2.8 -3.2 97 -4 -4 прохладно 1031.5 1019.1 -3.0
ЮЗ 1 9000 м дымка н/о -1.8 -2.0 99 -3 -3 прохладно 1031.6 1019.2
З 1 14 км н/о -1.3 -1.7 97 -2 -2 по сезону 1031.8 1019.5
Ю 1 14 км н/о -0.5 -0.6 99 -1 -1 по сезону 1032.0 1019.7
ЮЗ 1 16 км н/о +0.8 +0.6 99 0 0 по сезону 1032.0 1019.8
З 2 35 км н/о +3.6 +2.3 91 +1 +1 по сезону 1032.0 1019.9
З 3 30 км н/о +6.0 +3.1 82 +3 +3 по сезону 1031.7 1019.7 0.2
З 2 26 км н/о +6.3 +3.0 79 +4 +4 по сезону 1031.5 1019.5
СЗ 3 29 км н/о +6.7 +3.6 81 +4 +4 по сезону 1031.4 1019.4
З 2 30 км н/о +5.4 +3.0 85 +3 +3 по сезону 1031.3 1019.2
З 2 28 км н/о +4.6 +2.5 86 +2 +2 по сезону 1031.2 1019.1
З 3 24 км н/о +4.1 +2.5 89 +1 +1 по сезону 1030.9 1018.8
З 3 29 км н/о +3.9 +2.0 87 0 0 по сезону 1031.3 1019.2 +6.7 0.2
Ю 2 16 км н/о +2.8 +1.5 91 0 0 по сезону 1031.3 1019.1
Ю 2 13 км н/о +1.7 +1.1 96 -1 -1 по сезону 1031.3 1019.1
З 3 22 км н/о +2.7 +2.0 95 -1 -1 по сезону 1031.3 1019.1
Ю 2 15 км н/о +1.9 +0.8 92 -1 -1 по сезону 1031.0 1018.8
Ю 2 15 км н/о +2.1 +1.5 96 -1 -1 по сезону 1031.2 1019.0
ЮЗ 1 13 км н/о +2.4 +1.9 96 +2 +2 по сезону 1031.0 1018.8
ЮВ 2 14 км н/о +2.6 +1.9 95 -1 -1 по сезону 1030.7 1018.5
ЮЗ 1 23 км н/о +3.4 +2.5 94 +2 +2 по сезону 1029.8 1017.7
ЮЗ 2 26 км н/о +3.9 +2.9 93 +1 +1 по сезону 1029.4 1017.3
ЮЗ 1 30 км н/о +4.1 +2.8 91 +3 +3 по сезону 1028.6 1016.6
Ю 2 20 км н/о +3.4 +2.3 92 +1 +1 по сезону 1028.1 1016.0
Ю 3 15 км н/о +2.9 +2.2 95 -1 -1 по сезону 1028.0 1015.9 +1.5 0.2
ЮЗ 2 15 км н/о +2.9 +2.2 95 -0 -0 по сезону 1027.9 1015.8
Ю 3 11 км н/о +2.5 +1.8 95 -1 -1 по сезону 1028.3 1016.2
Ю 2 14 км н/о +2.8 +1.9 94 0 0 по сезону 1028.1 1016.0
ЮВ 2 12 км н/о +3.0 +2.3 95 0 0 по сезону 1028.1 1016.0
ЮЗ 3 27 км н/о +5.8 +3.6 86 +3 +3 по сезону 1027.4 1015.4
ЮЗ 3 30 км н/о +8.1 +4.4 77 +6 +6 тепло 1026.0 1014.1
ЮЗ 2 40 км н/о +8.7 +4.3 74 +7 +7 тепло 1025.2 1013.3
Ю 4 30 км н/о +8.3 +3.5 72 +5 +5 тепло 1024.5 1012.7
ЮЗ 2 35 км н/о +8.0 +3.9 75 +7 +7 тепло 1024.1 1012.2
Ю 3 19 км н/о +6.1 +4.0 86 +3 +3 по сезону 1024.3 1012.4
Ю 2 18 км н/о +5.3 +3.8 90 +3 +3 по сезону 1024.2 1012.2
Ю 3 15 км н/о +5.1 +4.0 93 +2 +2 по сезону 1024.0 1012.1 +9.5
Ю 3 20 км н/о +4.4 +3.3 93 +1 +1 по сезону 1023.9 1011.9
Ю 3 20 км н/о +3.7 +2.5 92 0 0 по сезону 1023.7 1011.6
Ю 2 20 км н/о +2.9 +1.4 90 -0 -0 по сезону 1023.0 1011.0
Ю 2 15 км н/о +2.4 +1.6 94 -1 -1 по сезону 1022.7 1010.6
Ю 2 27 км н/о +3.4 +1.6 88 0 0 по сезону 1022.5 1010.4
Ю 2 17 км н/о +2.3 +0.8 90 -0 -0 по сезону 1022.3 1010.2
Ю 1 10 км н/о +1.6 +0.7 94 -0 -0 по сезону 1021.7 1009.6
Ю 2 9000 м дымка н/о +1.9 +1.3 96 -2 -2 по сезону 1021.5 1009.4
Ю 2 5000 м дымка н/о +1.1 +0.7 97 -2 -2 по сезону 1021.0 1008.9
Ю 2 3700 м дымка н/о +1.0 +0.8 99 -2 -2 по сезону 1020.5 1008.4
Ю 2 4200 м дымка н/о +0.9 +0.8 99 -3 -3 прохладно 1020.1 1008.0
Ю 1 2100 м дымка н/о 0.0 -0.4 97 -1 -1 по сезону 1020.0 1007.9 0.0
ЮЗ 1 2400 м в посл. час туман н/о -0.3 -0.3 100 -3 -3 прохладно 1020.1 1008.0
Ю 2 2600 м дымка н/о +0.4 +0.4 100 -3 -3 прохладно 1020.5 1008.3
Ю 2 3800 м дымка н/о +1.2 +1.2 100 -2 -2 по сезону 1020.6 1008.5
Ю 2 5000 м дымка н/о +2.1 +2.1 100 -2 -2 по сезону 1020.8 1008.8
Ю 2 9000 м дым н/о +4.6 +3.1 90 +2 +2 по сезону 1020.2 1008.3
Ю 3 10 км н/о +6.2 +3.9 85 +3 +3 по сезону 1019.6 1007.8
Ю 4 23 км н/о +7.4 +3.5 76 +4 +4 по сезону 1019.4 1007.6
Ю 4 22 км н/о +7.5 +3.5 76 +4 +4 по сезону 1019.2 1007.4
Ю 3 30 км н/о +7.1 +3.2 76 +4 +4 по сезону 1018.9 1007.1
Ю 3 16 км н/о +5.7 +3.1 83 +3 +3 по сезону 1019.1 1007.2
Ю 2 11 км н/о +4.0 +2.4 89 +2 +2 по сезону 1019.4 1007.4
Ю 3 10 км н/о +3.5 +2.1 91 -0 -0 по сезону 1019.8 1007.8 +7.8
Ю 3 8000 м дым н/о +3.3 +2.3 93 -0 -0 по сезону 1019.9 1007.9
Ю 2 5000 м дымка н/о +2.5 +1.8 95 -1 -1 по сезону 1019.8 1007.7
Ю 2 2800 м дымка н/о +1.2 +0.4 94 -2 -2 по сезону 1020.0 1007.8
ЮВ 2 2600 м дымка н/о +1.1 +0.9 99 -2 -2 по сезону 1020.1 1008.0
Ю 2 3000 м дымка н/о +1.5 +1.4 99 -2 -2 по сезону 1020.1 1008.0
ЮВ 2 2300 м дымка н/о +1.3 +1.2 99 -2 -2 по сезону 1020.1 1008.0
Ю 3 4700 м дымка н/о +2.3 +2.2 99 -2 -2 по сезону 1019.7 1007.7
ЮВ 2 2600 м дымка н/о +1.8 +1.8 100 -1 -1 по сезону 1019.8 1007.7
Ю 2 4000 м дымка н/о +2.6 +2.3 98 -0 -0 по сезону 1019.6 1007.6
Ю 3 4300 м дымка н/о +2.6 +2.5 99 -1 -1 по сезону 1018.9 1006.8
Ю 3 3100 м дымка н/о +2.1 +2.0 99 -2 -2 по сезону 1019.5 1007.4
Ю 4 700 м туман н/о +2.0 +2.0 100 -3 -3 прохладно 1019.3 1007.3 +0.6 0.2 0.2
Ю 3 2100 м в посл. час туман н/о +2.2 +2.2 100 -2 -2 по сезону 1019.3 1007.3
Ю 4 700 м туман н/о +1.4 +1.4 100 -4 -4 прохладно 1019.4 1007.3
Ю 5 600 м туман н/о +2.5 +2.5 100 -3 -3 прохладно 1019.2 1007.1 77.1
Ю 4 5000 м в посл. час туман н/о +3.9 +3.9 100 -1 -1 по сезону 1018.7 1006.7
Ю 4 12 км н/о +5.6 +5.0 96 +2 +2 по сезону 1018.0 1006.1
Ю 6 14 км н/о +6.8 +5.3 90 +2 +2 по сезону 1017.1 1005.3
Ю 7 14 км н/о +7.0 +5.4 90 +2 +2 по сезону 1015.6 1003.8
Ю 6 16 км слаб. морось н/о +7.1 +5.7 91 +3 +3 по сезону 1014.2 1002.4
Ю 7 30 км в посл. час дождь н/о +7.9 +5.9 87 +3 +3 по сезону 1012.9 1001.2
ЮЗ 7 22 км в посл. час дождь н/о +8.0 +6.0 87 +4 +4 по сезону 1012.2 1000.4
Ю 8-13
{13}
21 км н/о +8.2 +5.9 85 +4 +4 по сезону 1011.2 999.4
Ю 8-15
{15}
20 км н/о +8.4 +6.3 87 +4 +4 по сезону 1010.5 998.8 +8.4 0.0
Ю 8 29 км н/о +8.6 +6.5 87 +4 +4 по сезону 1010.0 998.3
Ю 7
{13}
30 км н/о +8.6 +6.8 88 +4 +4 по сезону 1009.8 998.1
ЮЗ 5
{13}
28 км н/о +8.7 +7.3 91 +5 +5 тепло 1009.2 997.5
Ю 7
{13}
30 км слаб. ливневой дождь н/о +8.7 +7.7 93 +4 +4 по сезону 1008.3 996.6
Ю 5 30 км слаб. морось н/о +9.4 +8.4 93 +6 +6 тепло 1007.6 996.0
ЮЗ 5 50 км в посл. час дождь н/о +9.9 +8.6 92 +7 +7 тепло 1007.2 995.6 0.0
ЮЗ 4 50 км н/о +9.8 +8.7 93 +7 +7 тепло 1006.5 994.9
Ю 6 50 км н/о +10.2 +9.1 93 +7 +7 тепло 1005.7 994.1
Ю 7 50 км в посл. час дождь н/о +10.6 +9.3 92 +7 +7 тепло 1005.4 993.9
Ю 6 5000 м дымка н/о +10.2 +9.7 97 +7 +7 тепло 1004.7 993.1
Ю 5 3600 м слаб. морось н/о +10.3 +9.9 97 +7 +7 тепло 1004.2 992.6
ЮЗ 5 5000 м дождь н/о +10.4 +10.1 98 +7 +7 тепло 1003.4 991.9 +8.3 2 2.2
Ю 6 9000 м слаб. морось н/о +10.5 +10.2 98 +7 +7 тепло 1002.4 990.9
ЮЗ 5 5000 м в посл. час дождь н/о +10.6 +10.3 98 +7 +7 тепло 1002.3 990.8
Ю 5 30 км н/о +10.9 +10.3 96 +8 +8 тепло 1001.7 990.2
ЮЗ 4 11 км дымка н/о +11.0 +10.3 95 +9 +9 тепло 1001.5 990.0
ЮЗ 4 10 км слаб. морось с дождем н/о +11.3 +10.4 94 +9 +9 тепло 1000.9 989.5
ЮЗ 4 40 км в посл. час дождь н/о +11.5 +9.9 90 +9 +9 тепло 1000.1 988.7 0.8
ЮЗ 6 45 км в посл. час дождь н/о +11.9 +8.7 81 +9 +9 тепло 999.5 988.0
ЮЗ 3 2800 м сильн. ливневой дождь н/о +10.4 +9.0 91 +8 +8 тепло 998.9 987.5
З 5 1900 м сильн. дождь н/о +9.3 +7.7 90 +6 +6 тепло 999.0 987.5
З 6 30 км слаб. морось с дождем н/о +9.7 +7.8 88 +6 +6 тепло 999.7 988.2
З 6 50 км в посл. час дождь н/о +9.2 +6.9 86 +6 +6 тепло 1001.0 989.5
З 5 45 км н/о +9.2 +6.6 84 +6 +6 тепло 1002.8 991.3 +12.4 11
З 5 50 км н/о +9.1 +6.4 83 +6 +6 тепло 1004.1 992.6
З 5 13 км н/о +8.9 +6.4 84 +6 +6 тепло 1005.5 993.9
З 4 50 км н/о +8.7 +6.1 84 +6 +6 тепло 1006.0 994.4
З 4 45 км н/о +8.5 +6.1 85 +5 +5 тепло 1006.9 995.3
ЮЗ 3 45 км н/о +8.5 +5.9 84 +6 +6 тепло 1007.5 995.9
ЮЗ 3 35 км н/о +8.5 +5.9 84 +6 +6 тепло 1008.3 996.6
З 3 35 км н/о +8.9 +5.7 80 +6 +6 тепло 1009.0 997.3
ЮЗ 3 27 км н/о +8.6 +6.0 84 +6 +6 тепло 1009.5 997.9
ЮЗ 3 35 км н/о +8.5 +6.1 85 +6 +6 тепло 1010.0 998.3
ЮЗ 3 35 км н/о +8.3 +6.1 86 +6 +6 тепло 1010.3 998.6
ЮЗ 3 35 км н/о +8.0 +5.7 85 +6 +6 тепло 1010.6 998.9
ЮЗ 3 40 км н/о +8.2 +5.8 85 +5 +5 тепло 1011.6 999.9 +8.0 11.0
З 3 40 км н/о +8.1 +5.9 86 +5 +5 тепло 1012.3 1000.6
ЮЗ 4 35 км н/о +7.5 +5.6 88 +4 +4 по сезону 1012.1 1000.4
З 4 40 км н/о +8.3 +5.3 81 +5 +5 тепло 1012.0 1000.3
ЮЗ 3 27 км н/о +8.7 +6.3 85 +6 +6 тепло 1012.3 1000.6
Местоположение метеостанции Колсхилл (Великобритания): широта 52.48 долгота -1.68 высота над уровнем моря 96 м.
В архиве по умолчанию представлена погода в Колсхилле за последнюю неделю. Архивные данные за месяц целиком и за предыдущие месяцы, начиная с января 2011 года, Вы можете получить, выбрав интересующий диапазон дат из раскрывающегося списка и нажав кнопку "Найти!".
*Определитесь, кто Вы:
Внимание! Время в таблицах - всемирное. Для получения местного времени необходимо прибавить поправку, которая равна 0 ч.
Смотрите также архив погоды в соседних городах и на ближайших метеорологических станциях:
Партнеры нашего сайта:      
Пояснения к столбцам:
  • Ветер - указаны скорость ветра в м/с - средняя за 10 мин, порывы в срок и между сроками (в фигурных скобках) и направление, откуда дует ветер: С - северный,
  • СВ - северо-восточный, В - восточный, ЮВ - юго-восточный, Ю - южный, ЮЗ - юго-западный, З - западный, СЗ - северо-западный.
  • Видимость - горизонтальная дальность видимости в метрах или километрах. При видимости от 1 до 10 км при отсутствии осадков обычно наблюдается дымка, при ухудшении видимости до 1 км и менее - туман. В сухую погоду видимость может ухудшаться дымом, пылью или мглою.
  • Явления - указаны атмосферные явления, наблюдавшиеся в срок или в последний час перед сроком; фигурными скобками обозначены явления, наблюдавшиеся между сроками (за 1-3 часа до срока); квадратными скобками обозначены град или гололедные отложения с указанием их диаметра в мм.
  • Облачность - указаны через наклонную черту общая и нижняя облачность в баллах и высота нижней границы облаков в метрах; квадратными скобками обозначены формы облаков: Ci - перистые, Cs - перисто-слоистые, Cc - перисто-кучевые, Ac - высококучевые, As - высокослоистые, Sc - слоисто-кучевые, Ns - слоисто-дождевые, Cu - кучевые, Cb - кучево-дождевые. Подробнее классификацию облаков см. в Атласе облаков (PDF).
  • T - Температура воздуха - температура, измеренная на высоте 2 м над землей.
  • Td - Температура точки росы - температура, при понижении до которой содержащийся в воздухе водяной пар достигнет насыщения.
  • f - Относительная влажность воздуха - влажноcть воздуха, измеренная на высоте 2 м над землей.
  • Te - Эффективная температура - температура, которую ощущает одетый по сезону человек в тени. Характеристика душности погоды. При расчете учитывается влияние влажности воздуха и скорости ветра на теплоощущения человека.
  • Tes - Эффективная температура на солнце - температура, которую ощущает человек, с поправкой на солнечный нагрев. Характеристика знойности погоды. Зависит от высоты солнца над горизонтом, облачности и скорости ветра. Ночью, в пасмурную погоду, а также при ветре 12 м/с и более поправка равна нулю.
  • P - Атмосферное давление - приведенное к уровню моря атмосферное давление.
  • Po - Атмосферное давление - измеренное на уровне метеостанции атмосферное давление.
  • Tmin - Минимальная температура - минимум температуры воздуха на высоте 2 м над землей.
  • Tmax - Максимальная температура - максимум температуры воздуха на высоте 2 м над землей.
  • R - Количество осадков - Количество выпавших осадков за период времени, мм. При наведении курсора мыши на число - период времени, за который выпало указанное количество осадков.
  • R24 - Количество осадков - Количество выпавших осадков за 24 часа, мм.
  • S - Снежный покров - Высота снежного покрова, см. При наведении курсора мыши на число - состояние снежного покрова и степень покрытия местности в баллах.